Temp
70 71 68 68 57 49 42 50 54 60 65 68 70 69 71 74 72 64 76 81 78 76 76 78 79 79 79 79 78 78 78 78 78 79 78 78 78 78 78 78 78 79 79 80 80 80 80 79 79
70 74 70 60 50 42 45 52 54 61 68 72 72 70 69 71 82 81 74 79 81 78 76 77 79 79 79 79 78 78 78 78 78 78 78 78 78 78 78 78 78 79 80 80 80 80 79 79 79
74 73 63 55 45 45 48 55 58 65 70 68 68 76 74 74 79 81 79 79 79 77 77 76 79 79 79 79 78 78 78 78 78 78 78 78 78 78 78 78 78 79 80 80 80 79 79 79 78
72 68 63 51 50 54 57 59 61 64 70 71 71 70 78 83 81 81 79 79 79 77 76 77 79 79 79 79 78 78 78 78 78 78 78 78 78 77 77 77 78 79 80 80 80 79 79 78 78
70 61 50 45 51 58 63 64 65 63 65 69 70 71 72 79 79 78 79 80 79 75 75 77 78 78 79 79 78 78 78 77 77 78 78 78 77 77 77 77 78 79 79 79 79 78 78 77 77
61 58 46 45 59 62 65 68 64 63 66 70 70 71 72 77 77 76 78 77 79 76 74 76 78 78 78 78 78 78 77 77 77 77 77 77 77 77 77 77 77 78 78 79 79 78 77 76 76
58 54 46 49 57 60 65 69 64 63 65 69 74 68 73 79 76 76 75 74 74 74 72 73 76 77 78 78 77 77 77 77 77 77 77 77 77 76 77 77 77 77 77 77 78 77 76 76 75
60 57 47 51 57 57 67 68 68 67 69 77 77 67 69 73 76 74 71 69 70 70 71 70 71 75 75 75 77 77 77 77 77 77 77 76 76 76 76 75 76 77 77 77 77 77 76 75 75
63 50 47 54 58 60 69 65 69 75 72 72 75 73 77 78 77 75 74 70 68 70 67 68 69 70 71 72 75 77 77 77 77 77 77 75 74 74 75 75 76 77 77 77 76 76 75 75 75
56 45 53 63 65 63 68 65 68 69 69 68 70 76 79 81 75 73 74 72 70 69 69 67 68 68 69 74 73 73 73 75 75 75 74 74 74 72 72 74 75 76 76 76 76 76 76 76 72
50 47 58 64 66 66 65 66 71 67 65 68 68 72 76 75 74 74 75 75 72 73 72 70 69 68 70 72 68 70 71 72 72 71 72 74 72 71 72 70 72 71 75 71 74 73 73 71 70
47 55 61 63 68 65 65 69 67 69 69 74 73 74 74 75 72 72 75 75 74 74 74 72 70 68 68 68 70 70 70 69 69 69 69 69 68 67 67 68 68 68 68 68 68 68 69 70 69
48 52 57 62 64 64 66 65 66 67 73 76 76 75 73 73 74 73 74 73 75 77 76 75 71 68 68 67 68 67 68 68 68 68 68 68 66 65 66 66 66 66 66 66 66 67 68 68 69
51 52 54 58 62 64 63 65 67 70 74 74 74 73 73 72 73 72 75 72 70 76 76 76 73 70 68 69 67 69 68 68 68 67 68 68 67 65 65 64 65 65 66 66 66 66 67 67 68
51 46 51 55 60 61 64 58 61 69 71 70 70 71 72 72 73 72 73 72 71 73 75 72 73 71 70 69 68 68 70 70 69 70 68 69 68 66 66 65 65 66 65 66 66 66 66 66 67
44 43 38 49 54 60 61 51 61 65 66 65 68 68 68 68 70 71 72 69 70 69 72 73 77 73 70 72 71 68 71 72 73 73 71 70 69 67 66 66 66 66 66 66 66 65 64 65 65
40 34 37 47 53 54 52 48 59 63 63 63 64 65 67 67 68 70 72 71 70 69 69 71 73 73 72 71 67 67 69 68 69 70 69 70 70 69 68 67 67 65 65 65 66 64 66 63 64
36 36 40 41 49 50 47 48 55 59 60 60 62 64 65 66 68 70 71 72 70 69 68 68 70 72 72 73 70 68 68 69 70 72 69 70 70 69 68 67 66 66 65 64 64 64 65 65 65
43 40 40 45 50 47 46 47 51 57 57 56 58 60 62 64 69 70 71 71 69 68 66 67 67 67 67 67 69 68 71 73 72 72 73 72 71 70 68 68 67 66 66 66 65 65 64 63 64
43 39 38 44 50 46 46 46 52 54 55 57 57 58 59 60 64 68 68 68 66 65 64 64 65 67 66 71 73 73 74 73 75 75 73 72 71 71 69 68 67 66 66 65 65 64 63 63 64
41 39 39 40 45 45 43 40 44 52 54 56 58 57 58 58 58 60 64 64 64 64 63 64 64 65 66 69 69 67 67 67 68 68 70 71 72 71 70 69 68 66 67 65 65 65 65 63 63
37 47 46 43 38 30 43 27 38 45 47 51 54 54 55 56 56 57 59 59 61 63 63 63 62 63 67 66 69 70 75 75 80 79 73 70 71 71 71 69 69 67 68 66 66 67 66 65 63
43 47 43 42 36 31 34 27 34 43 42 45 50 53 54 55 55 56 57 58 61 61 59 60 61 61 64 65 68 72 72 77 78 67 69 68 67 69 70 70 68 68 67 68 66 66 67 67 64
48 42 39 34 31 24 32 31 29 37 43 46 50 53 54 54 55 56 57 58 57 58 57 57 57 58 61 64 66 70 72 73 65 64 66 65 64 66 68 69 69 68 67 67 67 67 67 66 66
41 32 24 23 23 24 35 31 35 44 49 50 50 52 54 53 52 52 53 56 58 59 57 58 59 59 60 61 65 68 72 73 69 71 70 64 63 65 67 68 67 68 68 68 68 67 67 65 66
36 34 23 19 21 23 36 28 34 46 50 52 52 51 52 53 52 51 53 54 57 59 58 57 57 57 59 60 64 68 70 74 72 71 69 68 67 66 67 68 68 68 69 69 68 67 67 66 66
35 31 35 28 24 19 27 34 43 49 48 49 50 51 50 52 52 52 54 53 55 56 57 57 56 58 60 60 63 65 68 69 69 65 66 65 66 67 67 68 68 68 69 69 67 67 67 66 65
40 42 27 24 19 19 26 29 32 41 46 46 47 47 52 54 51 54 55 55 58 57 57 56 57 59 61 60 63 66 66 67 67 63 64 66 66 68 67 68 68 68 69 68 67 67 66 65 65
35 31 31 28 23 17 17 28 39 40 43 43 45 50 53 54 52 51 54 56 57 57 57 57 58 59 60 60 61 64 64 64 64 65 65 66 66 67 68 68 68 68 68 67 67 67 65 65 64
39 35 32 21 21 29 26 29 46 48 44 45 47 50 51 53 51 51 52 54 56 58 59 59 59 60 61 63 59 61 62 63 64 65 66 66 67 68 68 69 68 69 68 67 67 65 65 65 63
MSLP
1009.36 1009.36 1009.35 1009.50 1011.28 1012.27 1012.06 1011.10 1010.04 1009.01 1007.70 1006.56 1006.22 1006.14 1005.51 1004.89 1004.82 1004.42 1002.42 1002.63 1002.62 1004.23 1005.37 1006.26 1006.59 1007.10 1007.44 1007.91 1008.35 1008.77 1009.12 1009.40 1009.81 1010.27 1010.72 1011.08 1011.36 1011.62 1011.87 1012.04 1012.41 1012.68 1012.92 1013.06 1013.32 1013.68 1013.96 1014.08 1014.26
1009.50 1009.32 1009.52 1010.41 1011.79 1012.41 1011.52 1010.45 1009.67 1008.59 1007.52 1006.44 1005.78 1005.20 1005.33 1003.64 1002.96 1002.64 1002.64 1002.93 1002.67 1003.33 1004.57 1005.82 1006.33 1006.57 1007.04 1007.60 1008.22 1008.77 1009.25 1009.50 1009.96 1010.44 1010.88 1011.09 1011.41 1011.78 1011.97 1012.13 1012.34 1012.63 1012.92 1013.08 1013.38 1013.61 1013.84 1014.15 1014.38
1009.46 1009.37 1010.08 1011.02 1011.80 1011.41 1010.75 1009.75 1008.75 1007.97 1007.21 1006.66 1005.65 1004.41 1003.91 1002.71 1001.74 1001.49 1001.19 1002.45 1003.20 1004.08 1005.04 1005.52 1006.35 1006.52 1006.74 1007.23 1007.93 1008.68 1009.19 1009.43 1009.97 1010.40 1010.86 1011.09 1011.36 1011.67 1011.98 1012.23 1012.48 1012.62 1012.88 1013.14 1013.42 1013.67 1013.84 1014.06 1014.34
1009.45 1009.80 1011.01 1011.21 1011.09 1010.08 1009.54 1008.91 1008.39 1007.63 1006.73 1006.14 1005.65 1004.63 1003.19 1001.84 1001.72 1001.07 1001.52 1002.20 1003.04 1004.05 1004.86 1005.51 1006.32 1006.65 1006.84 1007.13 1007.60 1008.27 1008.79 1009.20 1009.66 1010.04 1010.44 1010.85 1011.31 1011.46 1011.90 1012.05 1012.42 1012.64 1012.91 1013.18 1013.47 1013.68 1013.94 1014.10 1014.24
1009.65 1010.29 1011.40 1011.37 1010.18 1009.25 1008.67 1007.93 1007.52 1007.28 1006.91 1005.94 1005.62 1004.47 1003.36 1002.81 1002.34 1001.65 1001.53 1002.36 1002.69 1004.10 1004.66 1005.25 1005.92 1006.44 1006.87 1007.26 1007.49 1007.87 1008.30 1008.92 1009.35 1009.81 1010.28 1010.66 1011.02 1011.34 1011.66 1011.84 1012.19 1012.51 1012.95 1013.17 1013.39 1013.67 1013.88 1014.19 1014.27
1010.16 1010.87 1011.76 1011.35 1009.37 1008.71 1008.04 1007.45 1007.08 1006.78 1006.52 1005.83 1005.41 1004.60 1003.53 1003.19 1002.95 1002.78 1002.76 1003.52 1003.59 1004.29 1005.24 1005.47 1005.66 1006.30 1006.77 1007.30 1007.68 1007.78 1008.08 1008.62 1009.09 1009.55 1009.97 1010.29 1010.74 1011.07 1011.55 1011.83 1012.15 1012.39 1012.77 1013.15 1013.37 1013.61 1013.81 1014.14 1014.35
1010.22 1010.92 1011.04 1010.42 1009.19 1008.54 1007.62 1007.08 1006.82 1006.56 1006.36 1005.57 1004.95 1004.59 1003.99 1003.18 1003.32 1003.31 1003.48 1003.75 1004.12 1004.92 1005.44 1006.08 1006.43 1006.33 1006.65 1007.30 1007.86 1007.91 1008.13 1008.52 1009.06 1009.30 1009.64 1009.95 1010.44 1010.92 1011.29 1011.60 1011.95 1012.31 1012.61 1013.03 1013.22 1013.36 1013.60 1013.97 1014.25
1010.05 1010.49 1010.57 1009.96 1009.12 1008.31 1007.36 1007.09 1006.75 1006.37 1005.93 1005.41 1004.92 1005.10 1004.89 1004.59 1004.54 1004.20 1004.33 1004.59 1004.92 1005.30 1005.62 1006.30 1006.50 1006.72 1006.53 1007.28 1007.96 1008.20 1008.30 1008.65 1009.05 1009.34 1009.51 1009.90 1010.23 1010.72 1011.13 1011.44 1011.71 1012.12 1012.45 1012.73 1012.94 1013.12 1013.38 1013.71 1014.12
1009.89 1010.47 1009.99 1009.13 1008.61 1008.03 1007.15 1007.06 1006.52 1006.03 1005.90 1005.81 1005.33 1005.16 1005.09 1004.49 1004.46 1004.72 1005.06 1005.39 1005.58 1005.78 1006.07 1006.38 1006.81 1006.82 1006.85 1007.15 1007.79 1008.11 1008.42 1008.70 1009.00 1009.30 1009.62 1010.00 1010.29 1010.49 1011.05 1011.35 1011.64 1012.02 1012.32 1012.61 1012.84 1013.09 1013.28 1013.49 1013.82
1009.93 1010.01 1009.42 1008.39 1007.77 1007.34 1006.87 1007.22 1006.97 1006.47 1006.00 1005.70 1005.44 1005.18 1004.94 1004.50 1004.53 1004.86 1005.20 1005.44 1005.75 1006.03 1006.35 1006.76 1006.99 1006.85 1006.96 1007.10 1007.54 1007.94 1008.25 1008.70 1009.05 1009.31 1009.75 1010.16 1010.06 1010.40 1010.78 1011.30 1011.67 1011.81 1012.09 1012.32 1012.58 1012.89 1013.19 1013.33 1013.62
1009.88 1009.69 1009.11 1008.33 1007.78 1007.63 1007.54 1007.35 1007.01 1006.66 1005.73 1005.84 1005.77 1005.21 1004.87 1005.02 1004.75 1004.89 1004.87 1005.12 1005.29 1005.76 1006.18 1006.46 1007.05 1007.16 1006.97 1007.04 1007.42 1007.89 1008.19 1008.56 1009.08 1009.25 1009.59 1010.06 1010.33 1010.50 1010.63 1011.38 1011.71 1011.96 1012.09 1012.47 1012.65 1012.80 1013.05 1013.35 1013.52
1010.07 1009.64 1009.16 1008.70 1007.90 1007.63 1007.62 1007.20 1006.87 1006.22 1005.48 1005.85 1005.91 1005.61 1005.03 1004.89 1005.09 1005.20 1004.70 1004.67 1004.77 1005.43 1005.75 1006.18 1006.74 1006.99 1007.12 1007.12 1007.10 1007.71 1008.10 1008.40 1009.03 1009.16 1009.45 1010.03 1010.41 1010.81 1010.99 1011.31 1011.67 1011.73 1011.88 1012.29 1012.67 1012.84 1013.07 1013.46 1013.56
1009.83 1009.76 1009.25 1008.82 1008.26 1007.69 1007.46 1007.20 1006.78 1005.17 1005.90 1005.51 1005.63 1005.50 1005.24 1004.90 1004.81 1004.43 1004.34 1004.29 1004.44 1004.37 1004.81 1005.32 1006.10 1006.50 1006.90 1007.29 1006.95 1007.19 1007.63 1008.17 1008.50 1008.86 1009.14 1009.51 1010.00 1010.57 1011.11 1011.47 1011.73 1011.72 1011.87 1012.01 1012.36 1012.63 1012.91 1013.22 1013.31
1010.06 1009.93 1009.59 1008.95 1008.39 1007.83 1007.37 1006.97 1006.31 1004.51 1005.45 1005.32 1005.48 1005.42 1005.23 1005.11 1004.71 1004.29 1004.12 1004.13 1004.21 1004.09 1004.03 1003.88 1004.74 1005.57 1006.36 1006.59 1006.99 1006.83 1007.17 1007.58 1008.06 1008.38 1008.76 1009.05 1009.73 1009.81 1010.38 1010.91 1011.28 1011.37 1011.47 1011.68 1012.04 1012.35 1012.65 1012.94 1013.04
1010.22 1010.20 1009.75 1009.06 1008.38 1007.87 1007.53 1006.80 1005.39 1005.69 1005.45 1005.47 1005.55 1005.40 1005.29 1005.33 1004.86 1004.43 1003.98 1003.76 1003.60 1003.79 1003.67 1004.13 1004.04 1004.25 1005.32 1005.99 1006.50 1006.74 1006.77 1007.03 1007.49 1007.36 1007.59 1007.63 1008.63 1009.20 1009.63 1010.20 1010.58 1010.50 1010.72 1011.11 1011.72 1012.05 1012.24 1012.83 1013.03
1010.63 1010.58 1010.25 1009.03 1008.49 1007.84 1007.60 1006.37 1006.66 1006.67 1006.43 1006.10 1006.05 1005.96 1005.66 1005.39 1005.24 1004.49 1003.95 1003.73 1003.47 1003.82 1003.37 1003.27 1004.05 1004.25 1004.60 1004.94 1005.65 1006.49 1006.65 1006.77 1006.94 1006.97 1006.85 1007.43 1007.41 1007.85 1008.64 1009.22 1009.71 1009.92 1010.40 1010.63 1011.26 1011.80 1012.19 1012.61 1012.80
1011.38 1011.13 1010.70 1009.87 1009.12 1008.63 1008.41 1007.89 1007.25 1007.11 1006.83 1006.56 1006.20 1006.26 1005.90 1005.63 1005.45 1004.83 1004.03 1003.50 1003.18 1003.17 1003.71 1003.28 1003.47 1003.68 1003.80 1004.39 1004.94 1005.54 1006.43 1006.32 1006.20 1006.35 1006.65 1006.93 1007.86 1007.12 1007.78 1008.50 1009.01 1009.46 1010.09 1010.28 1010.65 1011.18 1011.68 1012.17 1012.27
1011.84 1011.48 1011.04 1010.74 1010.04 1009.42 1009.19 1008.96 1008.40 1007.70 1007.14 1006.74 1006.41 1006.01 1006.19 1005.87 1005.53 1005.06 1004.49 1003.91 1003.49 1003.12 1003.03 1003.31 1003.62 1003.30 1003.44 1003.92 1004.76 1005.15 1005.55 1005.66 1006.06 1006.10 1006.24 1006.87 1006.99 1006.74 1007.08 1007.85 1008.43 1009.22 1009.69 1009.98 1010.24 1010.66 1011.26 1011.65 1011.71
1011.45 1011.56 1011.30 1010.73 1010.31 1010.13 1009.64 1008.90 1008.58 1007.91 1007.41 1006.90 1006.60 1006.35 1005.85 1005.80 1005.50 1005.34 1005.18 1004.46 1004.00 1003.51 1002.97 1002.65 1003.15 1003.39 1003.81 1003.80 1004.35 1004.73 1004.95 1005.23 1005.19 1005.50 1005.39 1005.99 1006.15 1006.22 1006.63 1007.07 1007.87 1008.50 1008.84 1009.04 1009.55 1010.20 1010.77 1011.32 1011.54
1011.25 1011.41 1011.51 1011.31 1010.99 1011.12 1010.39 1008.97 1008.18 1007.79 1007.11 1006.73 1006.49 1006.32 1005.92 1005.81 1005.65 1005.51 1005.14 1005.03 1004.69 1004.34 1003.77 1003.12 1002.91 1002.80 1003.14 1003.34 1003.09 1003.24 1003.90 1004.15 1004.31 1004.60 1005.00 1005.37 1005.53 1005.84 1005.66 1006.52 1007.15 1008.13 1008.34 1008.58 1009.03 1009.60 1010.29 1010.76 1011.16
1011.16 1011.49 1011.68 1011.85 1011.57 1011.31 1010.86 1009.37 1008.58 1007.82 1007.15 1007.02 1006.82 1006.38 1006.13 1006.04 1005.87 1005.88 1005.62 1005.04 1004.79 1004.91 1004.42 1003.51 1003.20 1002.64 1002.59 1002.62 1002.88 1003.12 1003.31 1003.48 1003.98 1004.32 1004.19 1004.22 1004.43 1004.98 1005.22 1005.73 1006.39 1007.16 1007.47 1007.72 1008.08 1008.75 1009.35 1009.92 1010.51
1011.16 1011.40 1011.88 1012.28 1012.67 1012.93 1012.02 1010.77 1009.22 1008.46 1007.94 1007.40 1007.16 1006.96 1006.42 1006.24 1005.82 1005.52 1005.58 1005.46 1004.85 1004.61 1004.45 1003.80 1003.31 1002.50 1002.29 1002.05 1002.29 1002.33 1002.24 1002.28 1002.13 1002.64 1002.77 1002.99 1003.62 1004.06 1004.48 1005.19 1005.87 1006.27 1006.77 1007.08 1007.18 1007.73 1008.33 1008.91 1009.60
1011.11 1011.53 1012.24 1012.75 1013.30 1013.65 1013.10 1012.72 1009.52 1008.38 1007.89 1007.47 1007.21 1006.89 1006.50 1006.16 1005.90 1005.61 1005.37 1005.15 1004.78 1004.36 1003.96 1003.48 1003.13 1002.29 1001.98 1001.54 1001.50 1001.59 1001.46 1001.27 1001.24 1001.51 1002.11 1002.40 1002.88 1003.44 1003.92 1004.23 1004.74 1005.67 1005.91 1006.34 1006.74 1007.34 1007.93 1007.95 1008.50
1011.42 1012.14 1013.03 1013.72 1014.26 1014.40 1013.45 1012.90 1010.56 1009.20 1008.02 1007.52 1007.05 1006.53 1006.38 1006.18 1005.90 1005.62 1005.17 1004.78 1004.48 1003.84 1003.48 1002.94 1002.48 1001.95 1001.54 1001.10 1000.79 1000.57 1000.63 1000.54 1001.14 1001.16 1001.46 1001.81 1002.67 1002.99 1003.09 1003.48 1004.14 1004.86 1005.20 1005.66 1005.99 1006.51 1007.27 1007.46 1007.98
1011.97 1013.30 1014.57 1015.07 1015.26 1014.89 1013.72 1012.79 1009.61 1008.45 1007.78 1007.38 1007.17 1006.55 1005.95 1005.93 1006.03 1005.80 1005.31 1004.68 1004.09 1003.66 1003.05 1002.52 1002.03 1001.34 1000.73 1000.57 1000.01 999.74 999.74 999.86 1000.22 1000.07 1000.61 1001.11 1001.78 1002.15 1002.13 1003.11 1003.82 1004.07 1004.35 1005.05 1005.45 1006.17 1006.83 1007.14 1007.60
1012.50 1013.79 1015.40 1015.95 1016.12 1015.43 1014.24 1012.19 1008.86 1007.57 1007.14 1006.67 1006.66 1006.33 1006.05 1005.80 1005.61 1005.65 1005.16 1004.70 1003.89 1003.21 1002.81 1002.26 1001.76 1000.94 1000.17 999.75 999.23 998.98 999.09 999.29 999.42 999.62 1000.01 1000.16 1000.74 1000.77 1001.56 1002.66 1003.22 1003.56 1004.11 1004.75 1004.91 1005.74 1006.21 1006.80 1007.04
1012.84 1014.03 1014.78 1015.89 1016.36 1016.03 1013.98 1011.20 1008.32 1007.16 1007.02 1006.74 1006.51 1006.61 1006.64 1006.00 1005.47 1005.03 1004.41 1004.05 1003.43 1002.80 1002.24 1001.89 1001.37 1000.33 999.72 999.11 998.72 998.32 998.44 998.66 998.51 998.69 999.13 999.56 1000.07 1000.51 1001.34 1002.11 1002.84 1003.27 1003.91 1004.28 1004.73 1005.53 1005.89 1006.40 1006.71
1012.27 1013.40 1015.15 1016.57 1016.99 1016.10 1013.36 1011.26 1009.11 1007.73 1007.15 1006.92 1007.09 1006.95 1006.27 1005.78 1005.36 1004.66 1004.12 1003.63 1002.87 1002.37 1001.80 1001.11 1000.67 999.75 998.83 998.27 997.85 997.51 997.27 997.63 997.91 998.25 998.74 999.09 999.69 1000.09 1000.88 1001.94 1002.40 1002.97 1003.44 1004.01 1004.55 1005.16 1005.60 1005.99 1006.57
1012.86 1013.67 1014.98 1016.02 1016.37 1015.93 1014.00 1009.96 1007.89 1007.59 1007.18 1007.10 1007.02 1006.86 1006.38 1005.54 1005.09 1004.53 1003.79 1003.39 1002.85 1001.87 1001.20 1000.26 999.68 999.00 998.16 997.37 996.89 996.64 996.55 996.82 997.21 997.70 998.12 998.48 999.12 999.81 1000.68 1001.34 1001.68 1002.52 1003.13 1003.80 1004.34 1004.82 1005.32 1005.77 1006.45
1012.43 1013.36 1014.49 1015.48 1015.72 1015.29 1014.22 1008.91 1007.46 1007.05 1006.95 1007.19 1006.61 1006.59 1006.23 1005.64 1004.88 1004.17 1003.53 1003.12 1002.46 1001.50 1000.58 999.87 999.01 998.26 997.39 996.46 996.11 995.96 996.08 996.47 996.89 997.33 997.58 998.18 998.73 999.52 1000.15 1000.68 1001.37 1002.25 1002.80 1003.69 1004.02 1004.60 1004.97 1005.55 1006.30
Wind_Speed
5 4 0 5 5 6 3 7 1 5 6 3 2 3 7 6 8 8 6 15 20 19 18 19 23 23 23 23 22 21 19 18 17 17 17 17 17 17 16 16 15 15 15 14 12 11 10 9 9
3 1 4 3 5 1 6 4 3 5 5 8 9 3 4 16 14 8 4 7 16 21 19 17 23 24 24 24 23 21 21 20 19 18 17 17 17 16 16 15 15 15 14 14 13 12 11 9 8
2 2 4 4 4 7 5 5 3 4 9 5 4 7 5 6 2 6 5 14 15 17 15 16 22 23 24 24 23 22 21 21 21 20 19 18 18 17 16 15 14 14 14 13 12 11 11 9 8
1 4 4 4 9 4 5 3 5 5 5 3 2 9 7 4 3 6 13 17 19 17 15 18 21 21 22 23 23 23 22 22 22 21 20 19 18 17 16 15 14 13 13 13 12 10 9 9 8
3 3 2 2 7 2 3 4 4 5 5 7 4 7 5 5 9 5 18 17 21 17 15 17 22 22 21 21 23 23 23 22 22 21 21 20 18 17 16 16 15 14 12 12 12 10 8 7 7
3 3 3 5 10 1 2 6 3 3 4 10 7 9 4 3 5 5 8 7 11 15 11 12 22 21 21 20 20 22 23 22 22 21 21 20 19 18 16 15 14 13 12 11 11 10 9 7 6
5 4 6 5 6 4 2 3 1 3 5 5 7 4 8 13 5 7 7 7 8 9 8 7 10 16 20 18 18 19 20 21 21 21 20 20 19 18 16 15 14 13 12 11 12 11 10 9 7
3 4 4 5 6 4 1 4 4 3 5 7 6 6 11 7 8 9 9 8 7 6 7 6 6 10 12 11 15 14 16 17 18 19 19 18 17 16 15 14 13 13 12 12 12 12 12 10 9
3 2 5 6 5 3 5 6 2 2 5 5 4 4 6 3 4 6 5 4 5 4 4 5 6 6 7 8 9 11 15 14 14 14 15 13 7 9 11 11 14 13 12 12 12 12 12 11 10
4 3 7 4 3 5 10 2 7 5 9 4 4 6 6 6 2 4 3 3 2 5 3 3 5 6 7 8 8 7 6 6 7 7 7 7 9 7 7 9 13 13 13 12 12 11 12 11 4
2 3 1 2 3 2 6 2 3 5 11 3 10 13 10 5 7 7 6 6 5 4 4 6 5 4 8 7 4 3 3 4 4 5 5 8 6 4 4 3 3 3 9 3 6 5 4 5 4
2 4 3 2 2 2 8 11 7 13 13 6 6 9 8 10 6 8 8 7 10 7 6 6 6 5 6 3 7 6 5 4 4 5 6 4 3 3 2 3 3 4 3 4 4 2 3 4 5
2 2 2 3 5 6 6 13 15 19 8 8 7 7 9 10 10 7 8 6 6 13 13 12 9 7 6 5 4 5 6 5 5 4 5 5 5 4 3 3 3 3 3 4 4 4 4 5 6
1 2 5 5 5 5 5 10 11 9 6 8 7 7 7 9 12 7 6 6 7 10 12 16 16 12 7 8 6 7 6 6 5 5 6 8 6 6 6 5 6 5 5 4 4 5 5 5 6
2 2 4 7 7 8 7 13 17 9 5 7 7 7 7 7 9 9 9 8 8 10 6 10 16 16 14 12 8 6 7 7 8 10 12 14 11 8 8 6 6 7 6 6 4 4 4 4 5
3 4 2 4 1 6 10 12 3 7 6 8 3 6 6 7 7 9 8 8 7 6 10 8 9 11 13 15 10 6 6 7 9 7 6 11 13 12 10 8 7 6 6 6 5 4 4 5 5
5 1 1 8 5 4 3 3 4 6 7 7 7 2 5 7 6 8 10 10 9 8 7 8 11 13 15 13 8 8 9 6 7 5 4 9 9 12 9 7 6 7 5 6 6 4 5 4 5
1 2 2 4 5 6 4 7 6 8 7 7 8 7 3 6 5 8 10 10 10 9 6 4 6 9 12 7 6 4 5 7 6 6 6 7 9 11 10 7 6 7 5 5 5 5 5 3 5
1 3 3 4 3 7 8 10 8 8 6 8 6 7 8 3 4 5 7 9 10 10 10 9 5 7 2 3 6 3 10 9 7 8 10 11 10 10 10 7 8 8 9 8 8 5 6 4 3
4 2 3 4 5 2 10 19 14 9 7 6 6 8 8 5 3 5 8 5 6 9 11 10 8 7 6 5 6 6 6 6 7 7 8 10 11 11 9 9 8 10 6 7 8 7 3 4 6
2 3 2 5 4 5 6 6 2 4 4 4 7 7 7 7 8 4 5 7 6 5 9 9 10 9 7 9 3 2 2 3 3 4 6 11 12 9 10 10 9 9 8 8 9 9 9 6 4
3 5 3 2 4 3 4 9 2 1 5 3 8 9 9 8 7 6 5 6 9 7 7 9 10 9 10 8 8 13 13 12 12 11 7 8 10 10 10 10 10 9 8 8 9 9 9 5 5
4 2 1 1 2 1 5 1 9 5 3 4 9 8 8 9 8 9 8 7 11 9 8 8 9 9 12 9 11 11 13 12 9 4 6 6 7 8 11 11 10 9 7 8 9 9 9 6 5
2 3 5 4 2 2 5 3 5 3 4 8 7 9 7 8 9 9 9 8 9 8 7 7 8 9 10 8 10 14 15 13 6 5 6 5 4 6 7 7 8 8 8 9 8 9 10 8 4
6 6 5 6 4 5 2 5 9 8 10 10 9 11 10 6 7 8 11 13 14 13 11 8 7 12 8 9 11 11 16 16 14 13 9 7 5 4 6 7 8 7 8 8 8 8 8 8 8
3 7 6 5 4 5 3 9 9 6 9 8 8 9 10 12 8 7 10 11 14 15 12 10 10 10 10 8 12 12 15 11 10 10 8 7 7 6 7 8 7 7 8 8 8 6 5 7 6
2 3 3 2 3 3 6 9 12 13 9 8 11 6 10 13 12 10 11 8 12 14 13 11 12 13 11 11 10 11 12 13 11 10 8 6 5 5 8 8 8 8 9 9 8 5 7 7 6
5 6 3 3 2 5 5 8 12 11 15 6 7 9 15 13 10 12 9 10 13 13 13 11 11 14 14 10 11 11 12 12 11 8 9 8 7 8 9 9 10 10 9 8 8 6 5 7 5
1 2 4 3 5 5 4 9 7 6 8 5 7 12 16 17 13 9 9 11 12 12 14 12 13 13 13 10 10 10 9 9 8 9 7 8 7 10 11 12 11 10 10 8 7 7 8 8 7
5 7 6 5 5 4 3 17 3 13 5 6 8 10 13 13 12 10 8 9 8 16 17 15 14 13 13 11 8 11 8 9 10 9 9 9 10 10 11 11 11 10 9 9 9 9 8 9 8
Wind_Direction
328 322 1 47 63 67 258 256 271 335 329 227 196 173 222 212 175 211 306 172 134 149 160 169 167 161 155 152 150 151 147 143 139 139 139 141 143 148 152 155 159 157 160 156 153 151 150 147 136
306 94 40 82 96 116 262 255 220 214 258 297 279 209 195 256 224 295 103 205 157 151 159 167 173 164 159 156 154 153 153 149 147 148 151 150 153 158 159 160 162 164 164 159 161 159 152 144 131
272 59 83 107 129 205 210 209 194 251 260 232 282 238 243 236 297 216 196 162 150 147 158 165 176 168 162 158 157 157 157 152 154 156 159 160 163 164 165 165 167 167 168 166 167 161 150 146 138
2 26 48 106 232 254 197 201 240 319 311 219 276 305 304 280 279 187 145 143 148 150 158 168 176 172 166 162 160 162 159 158 160 161 163 166 168 168 171 169 174 173 173 171 170 164 157 155 149
41 58 54 272 257 227 227 219 261 297 280 290 327 283 251 21 337 122 142 153 150 157 162 170 175 173 169 170 166 166 163 163 164 166 167 170 174 174 176 174 177 176 179 177 174 169 164 167 162
71 96 95 244 249 112 282 227 238 231 283 299 325 312 296 289 17 51 106 138 141 152 156 177 175 174 170 174 175 170 168 169 170 171 173 173 177 177 181 180 180 179 180 182 179 174 169 173 171
157 124 207 232 268 339 285 238 227 313 304 303 288 338 297 357 52 72 84 91 112 135 140 168 188 177 169 176 184 178 174 173 177 176 178 178 178 180 184 183 182 184 184 186 184 179 177 179 185
140 134 197 220 252 278 299 347 293 344 290 302 353 11 350 332 19 65 58 66 84 122 141 169 182 187 167 172 184 185 180 180 181 184 183 182 180 182 186 186 187 189 189 190 189 184 184 184 191
146 177 208 205 168 197 288 13 231 290 276 342 310 56 301 354 81 67 64 52 83 125 153 164 193 171 163 150 177 185 189 190 192 191 191 182 182 182 192 192 192 193 195 198 196 193 191 189 195
169 182 215 182 171 286 262 211 308 336 316 297 306 320 321 322 322 113 135 169 164 192 187 216 209 175 155 167 169 164 180 191 194 195 196 195 188 187 178 194 201 200 204 202 201 199 198 201 186
207 211 225 20 58 349 296 310 291 294 287 90 315 309 325 302 317 264 182 181 195 199 191 191 218 207 178 173 151 164 174 169 197 189 172 205 199 185 164 160 194 193 215 202 210 202 196 194 193
214 246 200 122 320 289 286 316 274 262 267 297 296 281 299 307 286 254 236 202 174 192 193 184 200 204 208 174 177 175 177 177 198 187 175 173 163 182 167 168 192 188 191 195 204 191 188 208 212
167 299 329 305 272 259 284 274 272 259 290 275 275 287 283 285 277 270 243 237 243 195 188 194 178 191 200 215 182 172 183 180 190 185 181 172 171 171 159 178 197 208 192 198 198 192 195 209 212
222 291 281 264 229 242 228 268 266 272 18 311 298 286 278 272 275 296 276 234 227 221 216 182 189 190 184 199 212 191 180 180 184 178 191 185 193 176 180 184 204 214 202 197 201 191 201 216 209
251 306 301 220 216 226 191 261 257 319 2 299 347 334 343 326 315 283 277 279 228 230 192 207 200 179 187 204 203 206 199 183 203 203 195 190 192 188 184 194 201 214 197 185 196 197 188 213 219
48 59 25 287 145 249 173 244 54 1 19 326 340 334 355 335 328 316 307 291 273 238 211 192 201 192 203 199 200 219 207 208 228 232 207 214 196 182 185 198 205 198 190 189 190 186 198 213 216
5 147 296 320 33 337 141 301 321 323 331 311 311 269 316 318 324 316 319 320 306 274 242 212 189 193 196 201 196 195 219 213 219 203 215 211 222 188 183 193 196 174 187 190 186 183 197 192 218
227 356 306 257 324 5 298 226 287 297 307 290 299 303 243 296 291 310 306 317 315 303 278 222 231 213 195 189 197 182 209 217 214 217 215 214 203 186 176 189 173 176 181 191 182 181 186 188 210
109 185 230 285 347 9 290 287 283 270 270 282 282 296 299 264 264 290 284 303 313 325 323 296 194 226 171 162 174 192 214 224 213 212 205 205 198 182 185 183 178 180 192 198 185 164 181 196 158
180 174 231 288 286 298 277 293 285 216 231 216 262 283 280 279 285 314 313 309 316 302 310 309 284 258 196 214 213 189 198 215 229 222 211 196 190 190 179 184 183 194 188 179 177 173 162 167 183
155 160 222 235 311 290 313 280 89 279 254 302 285 266 283 286 303 293 301 305 302 282 292 297 286 281 238 216 171 87 94 126 151 204 205 203 188 191 189 189 183 186 188 192 184 184 181 175 182
195 202 214 259 34 290 39 285 260 124 267 277 304 297 285 297 307 296 302 288 296 287 259 274 283 277 272 232 216 213 221 224 228 232 199 178 182 198 191 187 187 184 191 195 191 182 189 149 166
202 159 333 293 238 103 280 293 276 309 330 329 310 275 276 285 283 298 301 291 292 288 284 273 272 272 264 249 217 223 228 234 235 167 184 180 184 191 190 185 174 195 189 194 178 173 188 189 152
77 40 34 51 76 25 259 181 248 240 226 315 306 306 268 285 304 308 298 301 288 287 281 274 280 268 259 250 232 225 229 224 203 190 193 182 174 188 185 172 185 186 185 188 185 179 189 180 180
72 51 340 347 5 233 284 292 242 248 278 267 254 284 298 293 289 293 304 310 310 302 293 289 275 286 274 240 241 226 230 228 221 215 209 163 166 197 178 170 176 190 195 189 168 173 184 178 186
188 151 157 242 228 244 2 251 253 221 236 266 240 265 296 297 287 278 281 285 296 301 296 287 282 277 283 256 241 232 229 228 218 215 202 190 193 176 138 182 185 187 178 177 163 170 169 171 171
170 174 193 146 7 35 229 291 294 281 284 271 269 309 292 285 296 296 300 286 288 295 287 283 281 279 267 263 242 225 218 216 207 203 190 183 158 146 161 171 177 177 179 169 154 166 169 171 161
156 162 86 19 254 259 258 254 239 303 293 299 309 297 307 302 288 296 309 304 308 296 285 283 272 275 277 266 246 225 208 206 205 169 183 175 156 149 155 175 173 171 162 155 170 160 151 150 150
166 169 74 129 152 197 300 263 219 238 258 290 304 312 313 307 297 286 295 302 298 298 290 286 289 281 275 263 247 229 212 196 173 180 174 170 149 166 171 176 160 162 161 160 163 155 154 153 146
169 192 154 135 246 216 214 261 343 278 303 312 311 316 319 315 286 282 287 295 313 334 318 308 292 286 275 263 234 214 196 177 177 181 176 164 172 169 170 162 154 159 155 166 157 158 154 155 162